Time,TemperatureF,DewpointF,PressureIn,WindDirection,WindDirectionDegrees,WindSpeedMPH,WindSpeedGustMPH,Humidity,HourlyPrecipIn,Conditions,Clouds,dailyrainin,SolarRadiationWatts/m^2,SoftwareType,DateUTC
2013-04-19 00:03:00,34.4,25.6,30.07,WNW,289,9.0,33.0,70,0.00,,,0.00,0,Wunderground v.1.15,2013-04-19 05:03:00,
2013-04-19 00:10:00,34.3,25.5,30.07,WNW,293,9.0,33.0,70,0.00,,,0.00,0,Wunderground v.1.15,2013-04-19 05:10:00,
2013-04-19 00:16:00,34.2,25.4,30.07,West,278,9.0,9.0,70,0.00,,,0.00,0,Wunderground v.1.15,2013-04-19 05:16:00,
2013-04-19 00:21:00,34.1,25.7,30.07,NW,305,8.0,33.0,71,0.00,,,0.00,0,Wunderground v.1.15,2013-04-19 05:21:00,
2013-04-19 00:28:00,34.1,25.3,30.07,WNW,289,8.0,33.0,70,0.00,,,0.00,0,Wunderground v.1.15,2013-04-19 05:28:00,
2013-04-19 00:33:00,34.3,25.2,30.07,West,281,10.0,33.0,69,0.00,,,0.00,0,Wunderground v.1.15,2013-04-19 05:33:00,
2013-04-19 00:39:00,34.8,25.3,30.07,WNW,297,12.0,33.0,68,0.00,,,0.00,0,Wunderground v.1.15,2013-04-19 05:39:00,
2013-04-19 00:46:00,34.9,25.0,30.07,NW,313,11.0,11.0,67,0.00,,,0.00,0,Wunderground v.1.15,2013-04-19 05:46:00,
2013-04-19 00:52:00,34.8,25.0,30.07,West,275,10.0,33.0,67,0.00,,,0.00,0,Wunderground v.1.15,2013-04-19 05:52:00,
2013-04-19 00:57:00,34.7,24.9,30.08,WNW,299,11.0,33.0,67,0.00,,,0.00,0,Wunderground v.1.15,2013-04-19 05:57:00,
2013-04-19 01:04:00,34.6,25.1,30.07,West,280,10.0,33.0,68,0.00,,,0.00,0,Wunderground v.1.15,2013-04-19 06:04:00,
2013-04-19 01:09:00,34.5,25.0,30.07,NW,310,11.0,13.0,68,0.00,,,0.00,0,Wunderground v.1.15,2013-04-19 06:09:00,
2013-04-19 01:15:00,34.4,24.9,30.08,WNW,300,11.0,11.0,68,0.00,,,0.00,0,Wunderground v.1.15,2013-04-19 06:15:00,
2013-04-19 01:22:00,34.3,24.8,30.08,WNW,294,10.0,14.0,68,0.00,,,0.00,0,Wunderground v.1.15,2013-04-19 06:22:00,
2013-04-19 01:27:00,34.3,24.8,30.08,NW,308,10.0,13.0,68,0.00,,,0.00,0,Wunderground v.1.15,2013-04-19 06:27:00,
2013-04-19 01:33:00,34.2,24.7,30.08,WNW,294,11.0,15.0,68,0.00,,,0.00,0,Wunderground v.1.15,2013-04-19 06:33:00,
2013-04-19 01:40:00,34.2,24.7,30.07,West,274,11.0,15.0,68,0.00,,,0.00,0,Wunderground v.1.15,2013-04-19 06:40:00,
2013-04-19 01:45:00,34.1,25.0,30.07,WNW,290,10.0,11.0,69,0.00,,,0.00,0,Wunderground v.1.15,2013-04-19 06:45:00,
2013-04-19 01:51:00,33.9,25.1,30.07,WNW,291,10.0,11.0,70,0.00,,,0.00,0,Wunderground v.1.15,2013-04-19 06:51:00,
2013-04-19 01:58:00,33.6,25.2,30.07,WNW,291,10.0,17.0,71,0.00,,,0.00,0,Wunderground v.1.15,2013-04-19 06:58:00,
2013-04-19 02:04:00,33.5,25.1,30.07,WNW,290,10.0,17.0,71,0.00,,,0.00,0,Wunderground v.1.15,2013-04-19 07:04:00,
2013-04-19 02:10:00,33.6,25.2,30.07,WNW,297,11.0,17.0,71,0.00,,,0.00,0,Wunderground v.1.15,2013-04-19 07:10:00,
2013-04-19 02:15:00,33.6,24.9,30.07,WNW,286,12.0,12.0,70,0.00,,,0.00,0,Wunderground v.1.15,2013-04-19 07:15:00,
2013-04-19 02:21:00,33.6,24.9,30.07,WNW,285,12.0,17.0,70,0.00,,,0.00,0,Wunderground v.1.15,2013-04-19 07:21:00,
2013-04-19 02:28:00,33.7,25.0,30.06,NW,305,12.0,16.0,70,0.00,,,0.00,0,Wunderground v.1.15,2013-04-19 07:28:00,
2013-04-19 02:35:00,33.7,25.0,30.06,WNW,302,13.0,13.0,70,0.00,,,0.00,0,Wunderground v.1.15,2013-04-19 07:35:00,
2013-04-19 02:42:00,33.8,25.0,30.06,WNW,300,11.0,17.0,70,0.00,,,0.00,0,Wunderground v.1.15,2013-04-19 07:42:00,
2013-04-19 02:47:00,33.7,25.0,30.07,West,281,10.0,17.0,70,0.00,,,0.00,0,Wunderground v.1.15,2013-04-19 07:47:00,
2013-04-19 02:53:00,33.7,25.0,30.06,West,270,9.0,17.0,70,0.00,,,0.00,0,Wunderground v.1.15,2013-04-19 07:53:00,
2013-04-19 03:00:00,33.6,24.9,30.06,West,278,9.0,17.0,70,0.00,,,0.00,0,Wunderground v.1.15,2013-04-19 08:00:00,
2013-04-19 03:06:00,33.5,24.8,30.06,WNW,285,10.0,10.0,70,0.00,,,0.00,0,Wunderground v.1.15,2013-04-19 08:06:00,
2013-04-19 03:12:00,33.5,24.8,30.06,WNW,297,10.0,17.0,70,0.00,,,0.00,0,Wunderground v.1.15,2013-04-19 08:12:00,
2013-04-19 03:17:00,33.5,25.1,30.06,WNW,291,10.0,17.0,71,0.00,,,0.00,0,Wunderground v.1.15,2013-04-19 08:17:00,
2013-04-19 03:24:00,33.6,25.2,30.06,WNW,289,10.0,17.0,71,0.00,,,0.00,0,Wunderground v.1.15,2013-04-19 08:24:00,
2013-04-19 03:29:00,33.5,25.1,30.06,WNW,299,11.0,17.0,71,0.00,,,0.00,0,Wunderground v.1.15,2013-04-19 08:29:00,
2013-04-19 03:36:00,33.5,25.1,30.06,West,280,10.0,17.0,71,0.00,,,0.00,0,Wunderground v.1.15,2013-04-19 08:36:00,
2013-04-19 03:42:00,33.5,25.1,30.07,WNW,297,11.0,17.0,71,0.00,,,0.00,0,Wunderground v.1.15,2013-04-19 08:42:00,
2013-04-19 03:48:00,33.5,25.1,30.07,WNW,303,11.0,17.0,71,0.00,,,0.00,0,Wunderground v.1.15,2013-04-19 08:48:00,
2013-04-19 03:54:00,33.5,25.1,30.06,West,276,11.0,17.0,71,0.00,,,0.00,0,Wunderground v.1.15,2013-04-19 08:54:00,
2013-04-19 03:59:00,33.6,24.9,30.07,West,277,11.0,15.0,70,0.00,,,0.00,0,Wunderground v.1.15,2013-04-19 08:59:00,
2013-04-19 04:06:00,33.8,24.7,30.06,WNW,282,11.0,11.0,69,0.00,,,0.00,0,Wunderground v.1.15,2013-04-19 09:06:00,
2013-04-19 04:12:00,33.8,24.7,30.06,West,278,11.0,17.0,69,0.00,,,0.00,0,Wunderground v.1.15,2013-04-19 09:12:00,
2013-04-19 04:17:00,33.7,25.0,30.06,West,281,11.0,17.0,70,0.00,,,0.00,0,Wunderground v.1.15,2013-04-19 09:17:00,
2013-04-19 04:24:00,33.6,24.9,30.06,WNW,285,10.0,17.0,70,0.00,,,0.00,0,Wunderground v.1.15,2013-04-19 09:24:00,
2013-04-19 04:29:00,33.4,24.7,30.06,WNW,291,11.0,17.0,70,0.00,,,0.00,0,Wunderground v.1.15,2013-04-19 09:29:00,
2013-04-19 04:35:00,33.3,24.6,30.07,WNW,283,12.0,12.0,70,0.00,,,0.00,0,Wunderground v.1.15,2013-04-19 09:35:00,
2013-04-19 04:42:00,33.2,24.8,30.07,WNW,282,10.0,17.0,71,0.00,,,0.00,0,Wunderground v.1.15,2013-04-19 09:42:00,
2013-04-19 04:47:00,33.1,24.7,30.07,WNW,288,9.0,17.0,71,0.00,,,0.00,0,Wunderground v.1.15,2013-04-19 09:47:00,
2013-04-19 04:53:00,33.0,24.6,30.07,WNW,287,9.0,17.0,71,0.00,,,0.00,0,Wunderground v.1.15,2013-04-19 09:53:00,
2013-04-19 04:59:00,32.8,24.8,30.07,West,275,9.0,17.0,72,0.00,,,0.00,0,Wunderground v.1.15,2013-04-19 09:59:00,
2013-04-19 05:05:00,32.7,24.7,30.07,West,276,9.0,17.0,72,0.00,,,0.00,0,Wunderground v.1.15,2013-04-19 10:05:00,
2013-04-19 05:12:00,32.6,24.6,30.07,West,280,9.0,17.0,72,0.00,,,0.00,0,Wunderground v.1.15,2013-04-19 10:12:00,
2013-04-19 05:17:00,32.6,24.6,30.07,WNW,299,9.0,17.0,72,0.00,,,0.00,0,Wunderground v.1.15,2013-04-19 10:17:00,
2013-04-19 05:23:00,32.6,24.6,30.07,WNW,283,9.0,17.0,72,0.00,,,0.00,0,Wunderground v.1.15,2013-04-19 10:23:00,
2013-04-19 05:30:00,32.6,24.6,30.07,West,270,9.0,17.0,72,0.00,,,0.00,0,Wunderground v.1.15,2013-04-19 10:30:00,
2013-04-19 05:35:00,32.6,24.6,30.08,WNW,283,9.0,9.0,72,0.00,,,0.00,0,Wunderground v.1.15,2013-04-19 10:35:00,
2013-04-19 05:42:00,32.6,24.9,30.07,West,281,8.0,17.0,73,0.00,,,0.00,0,Wunderground v.1.15,2013-04-19 10:42:00,
2013-04-19 05:48:00,32.5,24.8,30.08,WNW,287,8.0,17.0,73,0.00,,,0.00,0,Wunderground v.1.15,2013-04-19 10:48:00,
2013-04-19 05:53:00,32.3,24.6,30.08,West,277,8.0,17.0,73,0.00,,,0.00,0,Wunderground v.1.15,2013-04-19 10:53:00,
2013-04-19 06:00:00,32.1,24.4,30.08,West,274,9.0,17.0,73,0.00,,,0.00,0,Wunderground v.1.15,2013-04-19 11:00:00,
2013-04-19 06:06:00,31.9,24.2,30.08,West,277,9.0,17.0,73,0.00,,,0.00,0,Wunderground v.1.15,2013-04-19 11:06:00,
2013-04-19 06:12:00,31.7,24.0,30.08,West,278,9.0,17.0,73,0.00,,,0.00,0,Wunderground v.1.15,2013-04-19 11:12:00,
2013-04-19 06:18:00,31.6,23.9,30.08,West,279,9.0,17.0,73,0.00,,,0.00,0,Wunderground v.1.15,2013-04-19 11:18:00,
2013-04-19 06:23:00,31.6,24.3,30.09,West,265,10.0,17.0,74,0.00,,,0.00,0,Wunderground v.1.15,2013-04-19 11:23:00,
2013-04-19 06:29:00,31.6,24.3,30.09,West,271,10.0,17.0,74,0.00,,,0.00,0,Wunderground v.1.15,2013-04-19 11:29:00,
2013-04-19 06:36:00,31.5,24.2,30.09,West,270,8.0,8.0,74,0.00,,,0.00,0,Wunderground v.1.15,2013-04-19 11:36:00,
2013-04-19 06:41:00,31.4,24.1,30.09,West,272,8.0,17.0,74,0.00,,,0.00,0,Wunderground v.1.15,2013-04-19 11:41:00,
2013-04-19 06:48:00,31.3,24.0,30.09,West,275,9.0,17.0,74,0.00,,,0.00,5,Wunderground v.1.15,2013-04-19 11:48:00,
2013-04-19 06:53:00,31.2,23.9,30.09,West,271,10.0,17.0,74,0.00,,,0.00,7,Wunderground v.1.15,2013-04-19 11:53:00,
2013-04-19 06:59:00,31.1,23.8,30.10,WNW,285,9.0,17.0,74,0.00,,,0.00,11,Wunderground v.1.15,2013-04-19 11:59:00,
2013-04-19 07:06:00,31.0,24.0,30.10,West,273,9.0,9.0,75,0.00,,,0.00,16,Wunderground v.1.15,2013-04-19 12:06:00,
2013-04-19 07:11:00,31.1,24.1,30.10,West,273,9.0,17.0,75,0.00,,,0.00,19,Wunderground v.1.15,2013-04-19 12:11:00,
2013-04-19 07:18:00,31.2,24.2,30.10,West,278,10.0,17.0,75,0.00,,,0.00,25,Wunderground v.1.15,2013-04-19 12:18:00,
2013-04-19 07:23:00,31.4,24.4,30.10,West,273,9.0,17.0,75,0.00,,,0.00,33,Wunderground v.1.15,2013-04-19 12:23:00,
2013-04-19 07:30:00,31.5,24.5,30.11,WNW,283,7.0,17.0,75,0.00,,,0.00,53,Wunderground v.1.15,2013-04-19 12:30:00,
2013-04-19 07:36:00,31.5,24.5,30.11,WSW,254,6.0,17.0,75,0.00,,,0.00,69,Wunderground v.1.15,2013-04-19 12:36:00,
2013-04-19 07:41:00,31.7,24.7,30.11,West,266,7.0,17.0,75,0.00,,,0.00,90,Wunderground v.1.15,2013-04-19 12:41:00,
2013-04-19 07:48:00,32.0,25.0,30.11,West,264,7.0,17.0,75,0.00,,,0.00,111,Wunderground v.1.15,2013-04-19 12:48:00,
2013-04-19 07:53:00,32.4,25.4,30.11,West,274,8.0,17.0,75,0.00,,,0.00,135,Wunderground v.1.15,2013-04-19 12:53:00,
2013-04-19 07:59:00,33.0,25.6,30.11,West,272,8.0,17.0,74,0.00,,,0.00,162,Wunderground v.1.15,2013-04-19 12:59:00,
2013-04-19 08:06:00,33.7,26.0,30.11,WNW,283,10.0,17.0,73,0.00,,,0.00,188,Wunderground v.1.15,2013-04-19 13:06:00,
2013-04-19 08:11:00,34.3,26.2,30.11,West,276,10.0,17.0,72,0.00,,,0.00,209,Wunderground v.1.15,2013-04-19 13:11:00,
2013-04-19 08:17:00,34.9,26.4,30.11,West,281,11.0,12.0,71,0.00,,,0.00,230,Wunderground v.1.15,2013-04-19 13:17:00,
2013-04-19 08:23:00,35.5,26.7,30.11,West,276,11.0,17.0,70,0.00,,,0.00,251,Wunderground v.1.15,2013-04-19 13:23:00,
2013-04-19 08:30:00,36.1,26.9,30.11,WNW,293,11.0,17.0,69,0.00,,,0.00,269,Wunderground v.1.15,2013-04-19 13:30:00,
2013-04-19 08:35:00,36.5,26.6,30.11,WNW,283,10.0,10.0,67,0.00,,,0.00,294,Wunderground v.1.15,2013-04-19 13:35:00,
2013-04-19 08:42:00,37.1,27.5,30.10,WNW,302,10.0,17.0,68,0.00,,,0.00,315,Wunderground v.1.15,2013-04-19 13:42:00,
2013-04-19 08:47:00,37.7,27.4,30.11,WNW,301,12.0,17.0,66,0.00,,,0.00,332,Wunderground v.1.15,2013-04-19 13:47:00,
2013-04-19 08:54:00,38.5,28.1,30.11,West,276,12.0,17.0,66,0.00,,,0.00,357,Wunderground v.1.15,2013-04-19 13:54:00,
2013-04-19 08:59:00,39.1,28.3,30.11,West,278,12.0,17.0,65,0.00,,,0.00,374,Wunderground v.1.15,2013-04-19 13:59:00,
2013-04-19 09:05:00,39.9,27.9,30.11,West,276,11.0,17.0,62,0.00,,,0.00,396,Wunderground v.1.15,2013-04-19 14:05:00,
2013-04-19 09:12:00,40.6,28.2,30.11,West,280,10.0,17.0,61,0.00,,,0.00,417,Wunderground v.1.15,2013-04-19 14:12:00,
2013-04-19 09:17:00,41.1,28.7,30.10,WNW,283,10.0,17.0,61,0.00,,,0.00,439,Wunderground v.1.15,2013-04-19 14:17:00,
2013-04-19 09:24:00,41.7,29.2,30.10,West,278,10.0,17.0,61,0.00,,,0.00,461,Wunderground v.1.15,2013-04-19 14:24:00,
2013-04-19 09:29:00,42.2,28.5,30.10,WNW,297,11.0,17.0,58,0.00,,,0.00,478,Wunderground v.1.15,2013-04-19 14:29:00,
2013-04-19 09:35:00,42.8,29.0,30.11,WNW,287,10.0,17.0,58,0.00,,,0.00,497,Wunderground v.1.15,2013-04-19 14:35:00,
2013-04-19 09:41:00,43.3,29.5,30.11,WNW,295,12.0,17.0,58,0.00,,,0.00,512,Wunderground v.1.15,2013-04-19 14:41:00,
2013-04-19 09:48:00,43.4,29.6,30.11,West,279,13.0,17.0,58,0.00,,,0.00,533,Wunderground v.1.15,2013-04-19 14:48:00,
2013-04-19 09:54:00,43.9,29.2,30.11,West,265,12.0,17.0,56,0.00,,,0.00,550,Wunderground v.1.15,2013-04-19 14:54:00,
2013-04-19 09:59:00,44.4,29.7,30.12,WNW,286,12.0,17.0,56,0.00,,,0.00,568,Wunderground v.1.15,2013-04-19 14:59:00,
2013-04-19 10:13:00,44.8,28.7,30.12,West,265,11.0,12.0,53,0.00,,,0.00,606,Wunderground v.1.15,2013-04-19 15:13:00,
2013-04-19 10:20:00,45.3,29.6,30.12,West,262,11.0,12.0,54,0.00,,,0.00,631,Wunderground v.1.15,2013-04-19 15:20:00,
2013-04-19 10:25:00,46.1,30.4,30.11,West,274,11.0,12.0,54,0.00,,,0.00,643,Wunderground v.1.15,2013-04-19 15:25:00,
2013-04-19 10:31:00,46.4,28.8,30.12,West,269,12.0,14.0,50,0.00,,,0.00,661,Wunderground v.1.15,2013-04-19 15:31:00,
2013-04-19 10:38:00,47.0,30.7,30.12,West,268,12.0,12.0,53,0.00,,,0.00,679,Wunderground v.1.15,2013-04-19 15:38:00,
2013-04-19 10:44:00,46.9,28.7,30.11,West,267,11.0,12.0,49,0.00,,,0.00,693,Wunderground v.1.15,2013-04-19 15:44:00,
2013-04-19 10:50:00,47.5,29.8,30.11,West,276,11.0,12.0,50,0.00,,,0.00,708,Wunderground v.1.15,2013-04-19 15:50:00,
2013-04-19 10:55:00,47.8,29.5,30.11,West,277,12.0,16.0,49,0.00,,,0.00,722,Wunderground v.1.15,2013-04-19 15:55:00,
2013-04-19 11:01:00,48.6,30.8,30.11,WNW,287,13.0,16.0,50,0.00,,,0.00,740,Wunderground v.1.15,2013-04-19 16:01:00,
2013-04-19 11:07:00,48.9,29.0,30.11,West,259,12.0,17.0,46,0.00,,,0.00,752,Wunderground v.1.15,2013-04-19 16:07:00,
2013-04-19 11:14:00,49.7,29.7,30.11,WNW,285,11.0,17.0,46,0.00,,,0.00,768,Wunderground v.1.15,2013-04-19 16:14:00,
2013-04-19 11:20:00,50.0,27.8,30.11,West,261,11.0,17.0,42,0.00,,,0.00,777,Wunderground v.1.15,2013-04-19 16:20:00,
2013-04-19 11:25:00,50.3,28.1,30.10,West,270,10.0,17.0,42,0.00,,,0.00,793,Wunderground v.1.15,2013-04-19 16:25:00,
2013-04-19 11:32:00,50.7,26.6,30.10,West,279,10.0,17.0,39,0.00,,,0.00,803,Wunderground v.1.15,2013-04-19 16:32:00,
2013-04-19 11:37:00,51.2,26.4,30.10,West,281,10.0,17.0,38,0.00,,,0.00,816,Wunderground v.1.15,2013-04-19 16:37:00,
2013-04-19 11:44:00,50.7,26.6,30.09,WSW,256,9.0,17.0,39,0.00,,,0.00,830,Wunderground v.1.15,2013-04-19 16:44:00,
2013-04-19 11:49:00,51.0,26.9,30.09,West,265,10.0,17.0,39,0.00,,,0.00,838,Wunderground v.1.15,2013-04-19 16:49:00,
2013-04-19 11:56:00,50.7,26.0,30.09,WSW,252,8.0,17.0,38,0.00,,,0.00,849,Wunderground v.1.15,2013-04-19 16:56:00,
2013-04-19 12:01:00,51.4,28.5,30.09,West,264,8.0,17.0,41,0.00,,,0.00,858,Wunderground v.1.15,2013-04-19 17:01:00,
2013-04-19 12:07:00,51.5,26.1,30.08,WSW,251,8.0,17.0,37,0.00,,,0.00,867,Wunderground v.1.15,2013-04-19 17:07:00,
2013-04-19 12:13:00,52.0,27.1,30.08,WSW,241,8.0,17.0,38,0.00,,,0.00,874,Wunderground v.1.15,2013-04-19 17:13:00,
2013-04-19 12:20:00,52.4,26.9,30.08,West,276,9.0,17.0,37,0.00,,,0.00,882,Wunderground v.1.15,2013-04-19 17:20:00,
2013-04-19 12:25:00,52.6,26.4,30.08,WSW,253,9.0,17.0,36,0.00,,,0.00,891,Wunderground v.1.15,2013-04-19 17:25:00,
2013-04-19 12:31:00,53.2,27.6,30.07,West,276,8.0,17.0,37,0.00,,,0.00,900,Wunderground v.1.15,2013-04-19 17:31:00,
2013-04-19 12:38:00,54.7,27.6,30.07,West,267,6.0,17.0,35,0.00,,,0.00,904,Wunderground v.1.15,2013-04-19 17:38:00,
2013-04-19 12:43:00,55.0,27.8,30.07,WSW,256,7.0,17.0,35,0.00,,,0.00,911,Wunderground v.1.15,2013-04-19 17:43:00,
2013-04-19 12:50:00,54.3,27.2,30.07,West,259,10.0,17.0,35,0.00,,,0.00,914,Wunderground v.1.15,2013-04-19 17:50:00,
2013-04-19 12:55:00,54.6,28.8,30.07,West,274,10.0,17.0,37,0.00,,,0.00,918,Wunderground v.1.15,2013-04-19 17:55:00,
2013-04-19 13:01:00,55.6,30.4,30.06,WNW,282,10.0,17.0,38,0.00,,,0.00,925,Wunderground v.1.15,2013-04-19 18:01:00,
2013-04-19 13:08:00,55.9,30.0,30.06,West,264,10.0,17.0,37,0.00,,,0.00,925,Wunderground v.1.15,2013-04-19 18:08:00,
2013-04-19 13:14:00,56.3,31.0,30.06,WSW,252,9.0,17.0,38,0.00,,,0.00,926,Wunderground v.1.15,2013-04-19 18:14:00,
2013-04-19 13:20:00,56.4,31.1,30.05,WSW,243,9.0,11.0,38,0.00,,,0.00,928,Wunderground v.1.15,2013-04-19 18:20:00,
2013-04-19 13:25:00,57.7,30.2,30.05,West,259,10.0,17.0,35,0.00,,,0.00,932,Wunderground v.1.15,2013-04-19 18:25:00,
2013-04-19 13:31:00,57.7,31.6,30.05,WSW,258,12.0,17.0,37,0.00,,,0.00,928,Wunderground v.1.15,2013-04-19 18:31:00,
2013-04-19 13:38:00,58.4,31.5,30.05,WSW,255,11.0,17.0,36,0.00,,,0.00,930,Wunderground v.1.15,2013-04-19 18:38:00,
2013-04-19 13:43:00,58.2,30.7,30.04,West,268,14.0,17.0,35,0.00,,,0.00,932,Wunderground v.1.15,2013-04-19 18:43:00,
2013-04-19 13:49:00,58.6,31.0,30.04,WNW,282,12.0,17.0,35,0.00,,,0.00,930,Wunderground v.1.15,2013-04-19 18:49:00,
2013-04-19 13:56:00,58.5,32.3,30.04,West,276,12.0,12.0,37,0.00,,,0.00,928,Wunderground v.1.15,2013-04-19 18:56:00,
2013-04-19 14:01:00,58.9,32.0,30.03,West,274,10.0,17.0,36,0.00,,,0.00,926,Wunderground v.1.15,2013-04-19 19:01:00,
2013-04-19 14:07:00,59.9,34.9,30.04,West,260,9.0,16.0,39,0.00,,,0.00,921,Wunderground v.1.15,2013-04-19 19:07:00,
2013-04-19 14:13:00,59.3,30.2,30.03,West,262,11.0,17.0,33,0.00,,,0.00,923,Wunderground v.1.15,2013-04-19 19:13:00,
2013-04-19 14:20:00,60.0,34.3,30.04,West,268,11.0,17.0,38,0.00,,,0.00,914,Wunderground v.1.15,2013-04-19 19:20:00,
2013-04-19 14:25:00,60.7,32.1,30.04,West,272,14.0,14.0,34,0.00,,,0.00,918,Wunderground v.1.15,2013-04-19 19:25:00,
2013-04-19 14:32:00,60.9,33.0,30.03,West,276,13.0,21.0,35,0.00,,,0.00,919,Wunderground v.1.15,2013-04-19 19:32:00,
2013-04-19 14:37:00,61.0,33.1,30.02,West,274,14.0,17.0,35,0.00,,,0.00,921,Wunderground v.1.15,2013-04-19 19:37:00,
2013-04-19 14:43:00,61.5,34.3,30.02,West,264,12.0,17.0,36,0.00,,,0.00,918,Wunderground v.1.15,2013-04-19 19:43:00,
2013-04-19 14:50:00,61.5,33.6,30.02,West,274,11.0,18.0,35,0.00,,,0.00,963,Wunderground v.1.15,2013-04-19 19:50:00,
2013-04-19 14:56:00,62.1,32.6,30.02,West,265,14.0,14.0,33,0.00,,,0.00,893,Wunderground v.1.15,2013-04-19 19:56:00,
2013-04-19 15:02:00,62.0,31.0,30.02,West,281,14.0,21.0,31,0.00,,,0.00,872,Wunderground v.1.15,2013-04-19 20:02:00,
2013-04-19 15:07:00,63.3,33.7,30.01,West,268,14.0,15.0,33,0.00,,,0.00,886,Wunderground v.1.15,2013-04-19 20:07:00,
2013-04-19 15:13:00,63.1,31.9,30.01,WSW,251,16.0,21.0,31,0.00,,,0.00,872,Wunderground v.1.15,2013-04-19 20:13:00,
2013-04-19 15:19:00,63.2,32.0,30.01,West,264,16.0,17.0,31,0.00,,,0.00,896,Wunderground v.1.15,2013-04-19 20:19:00,
2013-04-19 15:26:00,63.1,33.5,30.00,West,278,14.0,14.0,33,0.00,,,0.00,884,Wunderground v.1.15,2013-04-19 20:26:00,
2013-04-19 15:31:00,62.8,33.2,30.00,West,281,12.0,17.0,33,0.00,,,0.00,218,Wunderground v.1.15,2013-04-19 20:31:00,
2013-04-19 15:38:00,63.3,32.1,30.00,NW,309,13.0,16.0,31,0.00,,,0.00,197,Wunderground v.1.15,2013-04-19 20:38:00,
2013-04-19 15:43:00,62.1,31.9,30.00,WNW,291,12.0,17.0,32,0.00,,,0.00,178,Wunderground v.1.15,2013-04-19 20:43:00,
2013-04-19 15:49:00,62.1,34.1,30.00,West,279,13.0,20.0,35,0.00,,,0.00,882,Wunderground v.1.15,2013-04-19 20:49:00,
2013-04-19 15:56:00,63.7,30.8,30.00,NW,309,17.0,18.0,29,0.00,,,0.00,784,Wunderground v.1.15,2013-04-19 20:56:00,
2013-04-19 16:01:00,63.7,33.3,30.00,WNW,297,17.0,18.0,32,0.00,,,0.00,772,Wunderground v.1.15,2013-04-19 21:01:00,
2013-04-19 16:07:00,64.1,32.8,30.00,WNW,289,15.0,19.0,31,0.00,,,0.00,784,Wunderground v.1.15,2013-04-19 21:07:00,
2013-04-19 16:14:00,63.8,31.7,30.00,WNW,299,15.0,19.0,30,0.00,,,0.00,747,Wunderground v.1.15,2013-04-19 21:14:00,
2013-04-19 16:19:00,64.0,31.9,30.00,NNW,348,13.0,22.0,30,0.00,,,0.00,729,Wunderground v.1.15,2013-04-19 21:19:00,
2013-04-19 16:26:00,63.8,32.6,30.00,NW,306,16.0,16.0,31,0.00,,,0.00,740,Wunderground v.1.15,2013-04-19 21:26:00,
2013-04-19 16:31:00,63.7,30.8,30.00,WNW,303,16.0,19.0,29,0.00,,,0.00,682,Wunderground v.1.15,2013-04-19 21:31:00,
2013-04-19 16:38:00,63.4,29.7,30.00,NW,322,16.0,17.0,28,0.00,,,0.00,668,Wunderground v.1.15,2013-04-19 21:38:00,
2013-04-19 16:44:00,63.6,30.7,30.00,NW,318,14.0,17.0,29,0.00,,,0.00,649,Wunderground v.1.15,2013-04-19 21:44:00,
2013-04-19 16:49:00,63.5,29.8,30.00,NW,326,15.0,25.0,28,0.00,,,0.00,629,Wunderground v.1.15,2013-04-19 21:49:00,
2013-04-19 16:56:00,63.5,30.6,30.00,NNW,339,15.0,15.0,29,0.00,,,0.00,619,Wunderground v.1.15,2013-04-19 21:56:00,
2013-04-19 17:01:00,63.5,29.8,30.00,NNW,331,15.0,24.0,28,0.00,,,0.00,594,Wunderground v.1.15,2013-04-19 22:01:00,
2013-04-19 17:08:00,63.7,30.0,30.00,NW,307,15.0,18.0,28,0.00,,,0.00,575,Wunderground v.1.15,2013-04-19 22:08:00,
2013-04-19 17:14:00,63.4,29.7,30.00,NNW,341,17.0,20.0,28,0.00,,,0.00,554,Wunderground v.1.15,2013-04-19 22:14:00,
2013-04-19 17:19:00,63.1,31.1,30.00,NNW,341,17.0,17.0,30,0.00,,,0.00,531,Wunderground v.1.15,2013-04-19 22:19:00,
2013-04-19 17:26:00,63.1,29.4,30.00,NW,325,15.0,15.0,28,0.00,,,0.00,512,Wunderground v.1.15,2013-04-19 22:26:00,
2013-04-19 17:31:00,62.9,30.1,30.00,NW,308,16.0,17.0,29,0.00,,,0.00,494,Wunderground v.1.15,2013-04-19 22:31:00,
2013-04-19 17:37:00,63.0,30.2,30.00,NW,312,16.0,19.0,29,0.00,,,0.00,475,Wunderground v.1.15,2013-04-19 22:37:00,
2013-04-19 17:44:00,62.7,30.8,30.01,NW,325,15.0,19.0,30,0.00,,,0.00,452,Wunderground v.1.15,2013-04-19 22:44:00,
2013-04-19 17:50:00,62.7,30.0,30.01,NW,324,14.0,23.0,29,0.00,,,0.00,432,Wunderground v.1.15,2013-04-19 22:50:00,
2013-04-19 17:55:00,62.6,29.9,30.01,NW,313,16.0,19.0,29,0.00,,,0.00,411,Wunderground v.1.15,2013-04-19 22:55:00,
2013-04-19 18:01:00,62.4,29.7,30.01,NW,318,15.0,19.0,29,0.00,,,0.00,392,Wunderground v.1.15,2013-04-19 23:01:00,
2013-04-19 18:07:00,62.2,29.5,30.00,NW,323,14.0,17.0,29,0.00,,,0.00,366,Wunderground v.1.15,2013-04-19 23:07:00,
2013-04-19 18:14:00,62.2,30.4,30.01,NW,320,13.0,17.0,30,0.00,,,0.00,345,Wunderground v.1.15,2013-04-19 23:14:00,
2013-04-19 18:19:00,62.0,29.3,30.01,NNW,333,13.0,18.0,29,0.00,,,0.00,325,Wunderground v.1.15,2013-04-19 23:19:00,
2013-04-19 18:25:00,61.8,33.1,30.01,NNW,336,12.0,17.0,34,0.00,,,0.00,308,Wunderground v.1.15,2013-04-19 23:25:00,
2013-04-19 18:32:00,61.6,32.2,30.01,North,2,12.0,18.0,33,0.00,,,0.00,285,Wunderground v.1.15,2013-04-19 23:32:00,
2013-04-19 18:38:00,61.2,32.6,30.01,NNE,19,14.0,17.0,34,0.00,,,0.00,269,Wunderground v.1.15,2013-04-19 23:38:00,
2013-04-19 18:43:00,60.7,32.9,30.01,North,8,15.0,17.0,35,0.00,,,0.00,246,Wunderground v.1.15,2013-04-19 23:43:00,
2013-04-19 18:50:00,60.1,32.3,30.02,North,2,14.0,17.0,35,0.00,,,0.00,225,Wunderground v.1.15,2013-04-19 23:50:00,
2013-04-19 18:55:00,59.9,32.9,30.02,North,10,12.0,17.0,36,0.00,,,0.00,207,Wunderground v.1.15,2013-04-19 23:55:00,
2013-04-19 19:02:00,59.5,33.2,30.02,North,2,11.0,17.0,37,0.00,,,0.00,176,Wunderground v.1.15,2013-04-20 00:02:00,
2013-04-19 19:07:00,59.1,33.5,30.02,North,2,11.0,17.0,38,0.00,,,0.00,148,Wunderground v.1.15,2013-04-20 00:07:00,
2013-04-19 19:13:00,58.7,33.1,30.02,North,10,11.0,17.0,38,0.00,,,0.00,121,Wunderground v.1.15,2013-04-20 00:13:00,
2013-04-19 19:19:00,58.3,34.1,30.02,NNE,26,9.0,17.0,40,0.00,,,0.00,98,Wunderground v.1.15,2013-04-20 00:19:00,
2013-04-19 19:26:00,57.6,34.1,30.02,NNE,12,7.0,7.0,41,0.00,,,0.00,77,Wunderground v.1.15,2013-04-20 00:26:00,
2013-04-19 19:31:00,57.0,34.1,30.02,North,8,7.0,17.0,42,0.00,,,0.00,42,Wunderground v.1.15,2013-04-20 00:31:00,
2013-04-19 19:38:00,55.9,34.3,30.02,NNE,24,6.0,17.0,44,0.00,,,0.00,30,Wunderground v.1.15,2013-04-20 00:38:00,
2013-04-19 19:43:00,54.7,35.4,30.03,NNE,25,4.0,17.0,48,0.00,,,0.00,25,Wunderground v.1.15,2013-04-20 00:43:00,
2013-04-19 19:49:00,53.3,35.6,30.03,NE,34,5.0,17.0,51,0.00,,,0.00,19,Wunderground v.1.15,2013-04-20 00:49:00,
2013-04-19 19:56:00,51.9,35.8,30.03,NE,35,6.0,17.0,54,0.00,,,0.00,14,Wunderground v.1.15,2013-04-20 00:56:00,
2013-04-19 20:01:00,50.6,35.5,30.03,NE,36,6.0,17.0,56,0.00,,,0.00,9,Wunderground v.1.15,2013-04-20 01:01:00,
2013-04-19 20:08:00,49.7,35.9,30.03,NE,36,5.0,17.0,59,0.00,,,0.00,5,Wunderground v.1.15,2013-04-20 01:08:00,
2013-04-19 20:13:00,49.2,35.9,30.03,NE,36,4.0,17.0,60,0.00,,,0.00,0,Wunderground v.1.15,2013-04-20 01:13:00,
2013-04-19 20:20:00,49.0,36.1,30.03,NE,36,5.0,17.0,61,0.00,,,0.00,0,Wunderground v.1.15,2013-04-20 01:20:00,
2013-04-19 20:25:00,48.7,36.3,30.03,NE,36,5.0,17.0,62,0.00,,,0.00,0,Wunderground v.1.15,2013-04-20 01:25:00,
2013-04-19 20:32:00,47.8,35.4,30.03,NE,38,5.0,17.0,62,0.00,,,0.00,0,Wunderground v.1.15,2013-04-20 01:32:00,
2013-04-19 20:38:00,47.1,34.7,30.03,NE,41,6.0,17.0,62,0.00,,,0.00,0,Wunderground v.1.15,2013-04-20 01:38:00,
2013-04-19 20:43:00,46.2,34.3,30.04,NE,41,7.0,17.0,63,0.00,,,0.00,0,Wunderground v.1.15,2013-04-20 01:43:00,
2013-04-19 20:50:00,45.7,34.6,30.04,NE,41,8.0,17.0,65,0.00,,,0.00,0,Wunderground v.1.15,2013-04-20 01:50:00,
2013-04-19 20:55:00,45.4,34.7,30.04,NE,41,7.0,7.0,66,0.00,,,0.00,0,Wunderground v.1.15,2013-04-20 01:55:00,
2013-04-19 21:01:00,45.0,34.7,30.04,NE,48,7.0,17.0,67,0.00,,,0.00,0,Wunderground v.1.15,2013-04-20 02:01:00,
2013-04-19 21:07:00,44.4,34.5,30.04,NE,52,6.0,17.0,68,0.00,,,0.00,0,Wunderground v.1.15,2013-04-20 02:07:00,
2013-04-19 21:14:00,46.5,34.2,30.05,NE,52,4.0,17.0,62,0.00,,,0.00,0,Wunderground v.1.15,2013-04-20 02:14:00,
2013-04-19 21:19:00,48.6,34.0,30.05,NE,52,3.0,17.0,57,0.00,,,0.00,0,Wunderground v.1.15,2013-04-20 02:19:00,
2013-04-19 21:26:00,48.6,33.6,30.05,NE,52,4.0,17.0,56,0.00,,,0.00,0,Wunderground v.1.15,2013-04-20 02:26:00,
2013-04-19 21:31:00,47.0,33.8,30.05,NE,52,5.0,17.0,60,0.00,,,0.00,0,Wunderground v.1.15,2013-04-20 02:31:00,
2013-04-19 21:38:00,45.3,33.8,30.06,NE,54,6.0,17.0,64,0.00,,,0.00,0,Wunderground v.1.15,2013-04-20 02:38:00,
2013-04-19 21:44:00,47.1,33.9,30.06,ENE,59,5.0,17.0,60,0.00,,,0.00,0,Wunderground v.1.15,2013-04-20 02:44:00,
2013-04-19 21:49:00,48.8,33.3,30.06,ENE,60,4.0,17.0,55,0.00,,,0.00,0,Wunderground v.1.15,2013-04-20 02:49:00,
2013-04-19 21:56:00,48.6,33.1,30.06,ENE,60,3.0,3.0,55,0.00,,,0.00,0,Wunderground v.1.15,2013-04-20 02:56:00,
2013-04-19 22:02:00,48.4,33.0,30.07,ENE,60,2.0,17.0,55,0.00,,,0.00,0,Wunderground v.1.15,2013-04-20 03:02:00,
2013-04-19 22:07:00,47.9,32.9,30.06,ENE,60,2.0,17.0,56,0.00,,,0.00,0,Wunderground v.1.15,2013-04-20 03:07:00,
2013-04-19 22:14:00,46.8,32.8,30.07,ENE,60,3.0,17.0,58,0.00,,,0.00,0,Wunderground v.1.15,2013-04-20 03:14:00,
2013-04-19 22:20:00,46.9,32.9,30.07,ENE,60,4.0,17.0,58,0.00,,,0.00,0,Wunderground v.1.15,2013-04-20 03:20:00,
2013-04-19 22:25:00,47.6,33.1,30.07,ENE,60,4.0,4.0,57,0.00,,,0.00,0,Wunderground v.1.15,2013-04-20 03:25:00,
2013-04-19 22:31:00,47.4,33.4,30.06,ENE,60,3.0,17.0,58,0.00,,,0.00,0,Wunderground v.1.15,2013-04-20 03:31:00,
2013-04-19 22:37:00,47.0,33.0,30.06,ENE,60,3.0,17.0,58,0.00,,,0.00,0,Wunderground v.1.15,2013-04-20 03:37:00,
2013-04-19 22:44:00,47.0,33.4,30.07,ENE,60,3.0,17.0,59,0.00,,,0.00,0,Wunderground v.1.15,2013-04-20 03:44:00,
2013-04-19 22:49:00,46.9,32.9,30.07,ENE,60,3.0,17.0,58,0.00,,,0.00,0,Wunderground v.1.15,2013-04-20 03:49:00,
2013-04-19 22:55:00,47.4,33.4,30.07,ENE,60,3.0,17.0,58,0.00,,,0.00,0,Wunderground v.1.15,2013-04-20 03:55:00,
2013-04-19 23:02:00,47.2,33.2,30.07,ENE,64,3.0,17.0,58,0.00,,,0.00,0,Wunderground v.1.15,2013-04-20 04:02:00,
2013-04-19 23:04:00,47.1,33.1,30.07,ENE,64,4.0,17.0,58,0.00,,,0.00,0,Wunderground v.1.15,2013-04-20 04:04:00,
2013-04-19 23:07:00,46.4,32.8,30.06,ENE,69,4.0,17.0,59,0.00,,,0.00,0,Wunderground v.1.15,2013-04-20 04:07:00,
2013-04-19 23:11:00,45.2,32.5,30.06,ENE,70,5.0,17.0,61,0.00,,,0.00,0,Wunderground v.1.15,2013-04-20 04:11:00,
2013-04-19 23:17:00,44.9,33.1,30.07,ENE,70,4.0,17.0,63,0.00,,,0.00,0,Wunderground v.1.15,2013-04-20 04:17:00,
2013-04-19 23:24:00,45.0,33.2,30.07,ENE,70,3.0,17.0,63,0.00,,,0.00,0,Wunderground v.1.15,2013-04-20 04:24:00,
2013-04-19 23:30:00,44.8,33.0,30.07,ENE,70,3.0,17.0,63,0.00,,,0.00,0,Wunderground v.1.15,2013-04-20 04:30:00,
2013-04-19 23:35:00,42.6,32.0,30.07,ENE,70,3.0,17.0,66,0.00,,,0.00,0,Wunderground v.1.15,2013-04-20 04:35:00,
2013-04-19 23:41:00,40.8,32.5,30.07,ENE,70,3.0,17.0,72,0.00,,,0.00,0,Wunderground v.1.15,2013-04-20 04:41:00,
2013-04-19 23:47:00,41.7,33.0,30.07,ENE,70,3.0,17.0,71,0.00,,,0.00,0,Wunderground v.1.15,2013-04-20 04:47:00,
2013-04-19 23:53:00,41.9,32.5,30.07,ENE,70,3.0,17.0,69,0.00,,,0.00,0,Wunderground v.1.15,2013-04-20 04:53:00,
2013-04-19 23:59:00,42.0,32.6,30.07,ENE,70,3.0,17.0,69,0.00,,,0.00,0,Wunderground v.1.15,2013-04-20 04:59:00,